Change the Weather History Date:

Sunday, March 3, 2013

  Actual Average (KBCB) Record (KBCB)
Temperature  
Mean Temperature 27 °F 38 °F  
Max Temperature 30 °F 49 °F 74 °F (1992)
Min Temperature 24 °F 27 °F 3 °F (1980)
Degree Days  
Heating Degree Days 38 27  
Month to date heating degree days 82  
Since 1 July heating degree days 4130  
Cooling Degree Days 0 0  
Month to date cooling degree days 0  
Year to date cooling degree days 0  
Moisture  
Dew Point 16 °F    
Average Humidity 67    
Maximum Humidity 80    
Minimum Humidity 55    
Precipitation  
Precipitation 0.00 in 0.10 in 1.26 in (1960)
Month to date precipitation 0.29  
Year to date precipitation 6.18  
Snow  
Snow 0.00 in - - ()
Month to date snowfall  
Since 1 July snowfall  
Snow Depth -    
Sea Level Pressure  
Sea Level Pressure 29.91 in    
Wind  
Wind Speed 10 mph (NW)    
Max Wind Speed 17 mph    
Max Gust Speed 26 mph    
Visibility 9 miles    
Events Snow    
T = Trace of Precipitation, MM = Missing Value Source: NWS Daily Summary

Daily Weather History Graph

Daily Weather History Graph

Search for Another Location

Airport or City:

Trip Planner

Search our weather history database for the weather conditions in past years. The results will help you decide how hot, cold, wet, or windy it might be!

Date:

Astronomy

Mar. 03, 2013 Rise Set
Actual Time 6:50 AM EST 6:19 PM EST
Civil Twilight 6:24 AM EST 6:45 PM EST
Nautical Twilight 5:54 AM EST 7:15 PM EST
Astronomical Twilight 5:24 AM EST 7:45 PM EST
Moon No Moon Rise 10:13 AM EST
Length of Visible Light 12h 20m
Length of Day
11h 28m
Waning Gibbous, 64% of the Moon is Illuminated
Mar 3
Waning Gibbous
Mar 4
Last Quarter
Mar 11
New
Mar 19
First Quarter
Mar 27
Full

Hourly Weather History & Observations

Time (EST) Temp. Windchill Dew Point Humidity Pressure Visibility Wind Dir Wind Speed Gust Speed Precip Events Conditions
12:15 AM 24.8 °F 16.9 °F 15.8 °F 69% 29.90 in 10.0 mi WNW 6.9 mph - N/A Snow Light Snow
12:35 AM 24.8 °F 14.6 °F 15.8 °F 69% 29.90 in 10.0 mi NW 10.4 mph 16.1 mph N/A Snow Light Snow
12:55 AM 24.8 °F 13.4 °F 15.8 °F 69% 29.89 in 10.0 mi NW 12.7 mph 17.3 mph N/A   Overcast
1:15 AM 24.8 °F 12.9 °F 15.8 °F 69% 29.89 in 10.0 mi WNW 13.8 mph - N/A Snow Light Snow
1:35 AM 24.8 °F 12.9 °F 15.8 °F 69% 29.90 in 10.0 mi WNW 13.8 mph - N/A Snow Light Snow
1:55 AM 24.8 °F 14.6 °F 15.8 °F 69% 29.90 in 10.0 mi WNW 10.4 mph - N/A   Overcast
2:15 AM 24.8 °F 16.1 °F 14.0 °F 64% 29.89 in 10.0 mi NW 8.1 mph - N/A   Overcast
2:35 AM 24.8 °F 15.3 °F 15.8 °F 69% 29.89 in 10.0 mi WNW 9.2 mph - N/A Snow Light Snow
2:55 AM 24.8 °F 16.9 °F 15.8 °F 69% 29.89 in 10.0 mi NW 6.9 mph - N/A   Overcast
3:15 AM 24.8 °F 16.1 °F 15.8 °F 69% 29.89 in 7.0 mi WNW 8.1 mph - N/A Snow Light Snow
3:35 AM 24.8 °F 14.6 °F 15.8 °F 69% 29.88 in 10.0 mi NNW 10.4 mph - N/A Snow Light Snow
4:15 AM 24.8 °F 11.5 °F 14.0 °F 64% 29.88 in 10.0 mi WNW 17.3 mph 20.7 mph N/A Snow Light Snow
4:35 AM 24.8 °F 12.9 °F 15.8 °F 69% 29.88 in 10.0 mi WNW 13.8 mph 21.9 mph N/A   Overcast
4:55 AM 24.8 °F 13.4 °F 15.8 °F 69% 29.88 in 10.0 mi WNW 12.7 mph 18.4 mph N/A   Overcast
5:15 AM 24.8 °F 14.6 °F 12.2 °F 59% 29.89 in 10.0 mi WNW 10.4 mph 19.6 mph N/A   Overcast
5:35 AM 24.8 °F 14.6 °F 14.0 °F 64% 29.89 in 10.0 mi WNW 10.4 mph 17.3 mph N/A   Overcast
5:55 AM 24.8 °F 14.0 °F 14.0 °F 64% 29.89 in 10.0 mi WNW 11.5 mph 18.4 mph N/A Snow Light Snow
6:15 AM 24.8 °F 14.6 °F 15.8 °F 69% 29.89 in 10.0 mi WNW 10.4 mph - N/A   Overcast
6:35 AM 24.8 °F 15.3 °F 15.8 °F 69% 29.89 in 10.0 mi NW 9.2 mph 18.4 mph N/A Snow Light Snow
6:55 AM 24.8 °F 15.3 °F 15.8 °F 69% 29.90 in 5.0 mi NW 9.2 mph 16.1 mph N/A Snow Light Snow
7:15 AM 24.8 °F 16.1 °F 15.8 °F 69% 29.90 in 7.0 mi NW 8.1 mph - N/A Snow Light Snow
7:35 AM 24.8 °F 14.6 °F 17.6 °F 74% 29.91 in 5.0 mi NW 10.4 mph 17.3 mph N/A Snow Light Snow
7:55 AM 24.8 °F 15.3 °F 17.6 °F 74% 29.92 in 5.0 mi NW 9.2 mph - N/A Snow Light Snow
8:15 AM 24.8 °F 15.3 °F 17.6 °F 74% 29.92 in 7.0 mi NW 9.2 mph - N/A Snow Light Snow
8:35 AM 24.8 °F 16.1 °F 17.6 °F 74% 29.92 in 3.0 mi NW 8.1 mph - N/A Snow Light Snow
8:55 AM 24.8 °F 16.9 °F 17.6 °F 74% 29.92 in 4.0 mi NNW 6.9 mph - N/A Snow Light Snow
9:15 AM 24.8 °F 17.9 °F 19.4 °F 80% 29.92 in 3.0 mi NNW 5.8 mph - N/A Snow Light Snow
9:35 AM 24.8 °F 17.9 °F 19.4 °F 80% 29.92 in 3.0 mi North 5.8 mph - N/A Snow Light Snow
9:55 AM 24.8 °F 16.9 °F 19.4 °F 80% 29.92 in 5.0 mi NW 6.9 mph - N/A Snow Light Snow
10:15 AM 24.8 °F 17.9 °F 19.4 °F 80% 29.91 in 10.0 mi North 5.8 mph - N/A Snow Light Snow
10:35 AM 24.8 °F 16.1 °F 17.6 °F 74% 29.91 in 10.0 mi NW 8.1 mph - N/A Snow Light Snow
10:55 AM 24.8 °F 12.9 °F 17.6 °F 74% 29.91 in 10.0 mi NW 13.8 mph 17.3 mph N/A Snow Light Snow
11:15 AM 24.8 °F 16.9 °F 15.8 °F 69% 29.92 in 10.0 mi NNW 6.9 mph - N/A Snow Light Snow
11:35 AM 26.6 °F 20.0 °F 17.6 °F 69% 29.92 in 10.0 mi NNW 5.8 mph - N/A   Overcast
11:55 AM 26.6 °F 16.2 °F 15.8 °F 64% 29.91 in 10.0 mi West 11.5 mph - N/A Snow Light Snow
12:15 PM 26.6 °F 17.5 °F 17.6 °F 69% 29.91 in 10.0 mi NW 9.2 mph - N/A Snow Light Snow
12:35 PM 26.6 °F 15.7 °F 15.8 °F 64% 29.91 in 10.0 mi WNW 12.7 mph 18.4 mph N/A   Overcast
12:55 PM 26.6 °F 16.2 °F 15.8 °F 64% 29.90 in 10.0 mi WNW 11.5 mph - N/A Snow Light Snow
1:15 PM 26.6 °F 14.7 °F 15.8 °F 64% 29.89 in 10.0 mi WNW 15.0 mph 18.4 mph N/A Snow Light Snow
1:35 PM 26.6 °F 15.2 °F 15.8 °F 64% 29.89 in 10.0 mi WNW 13.8 mph 19.6 mph N/A   Overcast
1:55 PM 26.6 °F 16.8 °F 15.8 °F 64% 29.89 in 10.0 mi NW 10.4 mph 24.2 mph N/A Snow Light Snow
2:15 PM 28.4 °F 18.0 °F 15.8 °F 59% 29.89 in 10.0 mi WNW 12.7 mph 21.9 mph N/A   Overcast
2:35 PM 28.4 °F 19.7 °F 15.8 °F 59% 29.89 in 10.0 mi NW 9.2 mph - N/A   Overcast
2:55 PM 28.4 °F 18.0 °F 15.8 °F 59% 29.89 in 10.0 mi NW 12.7 mph 18.4 mph N/A Snow Light Snow
3:15 PM 30.2 °F 19.8 °F 15.8 °F 55% 29.88 in 10.0 mi WNW 13.8 mph 19.6 mph N/A   Overcast
3:35 PM 28.4 °F 18.0 °F 15.8 °F 59% 29.88 in 10.0 mi WNW 12.7 mph 20.7 mph N/A   Overcast
3:55 PM 28.4 °F 19.1 °F 15.8 °F 59% 29.88 in 10.0 mi WNW 10.4 mph 18.4 mph N/A   Overcast
4:15 PM 28.4 °F 18.5 °F 17.6 °F 64% 29.89 in 10.0 mi WNW 11.5 mph 18.4 mph N/A   Overcast
4:55 PM 28.4 °F 18.5 °F 17.6 °F 64% 29.89 in 10.0 mi NW 11.5 mph 16.1 mph N/A   Overcast
5:15 PM 28.4 °F 19.7 °F 19.4 °F 69% 29.90 in 5.0 mi NW 9.2 mph 16.1 mph N/A Snow Light Snow
5:35 PM 28.4 °F 18.0 °F 15.8 °F 59% 29.90 in 10.0 mi WNW 12.7 mph 18.4 mph N/A   Mostly Cloudy
5:55 PM 26.6 °F 15.7 °F 15.8 °F 64% 29.91 in 10.0 mi WNW 12.7 mph 18.4 mph N/A   Mostly Cloudy
6:15 PM 26.6 °F 16.2 °F 17.6 °F 69% 29.91 in 10.0 mi West 11.5 mph 20.7 mph N/A Snow Light Snow
6:35 PM 26.6 °F 15.7 °F 17.6 °F 69% 29.91 in 7.0 mi WNW 12.7 mph - N/A Snow Light Snow
6:55 PM 26.6 °F 14.7 °F 19.4 °F 74% 29.92 in 7.0 mi WNW 15.0 mph - N/A Snow Light Snow
7:35 PM 26.6 °F 15.2 °F 15.8 °F 64% 29.94 in 10.0 mi WNW 13.8 mph 18.4 mph N/A   Mostly Cloudy
7:55 PM 26.6 °F 15.2 °F 15.8 °F 64% 29.94 in 10.0 mi West 13.8 mph 18.4 mph N/A Snow Light Snow
8:15 PM 26.6 °F 16.2 °F 17.6 °F 69% 29.94 in 10.0 mi WNW 11.5 mph 20.7 mph N/A Snow Light Snow
8:35 PM 26.6 °F 13.8 °F 15.8 °F 64% 29.95 in 10.0 mi West 17.3 mph 26.5 mph N/A Snow Light Snow
8:55 PM 24.8 °F 13.4 °F 14.0 °F 64% 29.96 in 10.0 mi WNW 12.7 mph - N/A   Overcast
9:15 PM 24.8 °F 11.9 °F 12.2 °F 59% 29.96 in 10.0 mi NW 16.1 mph 20.7 mph N/A   Overcast
9:35 PM 24.8 °F 14.0 °F 12.2 °F 59% 29.96 in 10.0 mi NW 11.5 mph - N/A   Overcast
9:55 PM 24.8 °F 14.6 °F 14.0 °F 64% 29.95 in 10.0 mi NW 10.4 mph 18.4 mph N/A   Overcast
10:15 PM 24.8 °F 15.3 °F 15.8 °F 69% 29.96 in 10.0 mi NW 9.2 mph 17.3 mph N/A   Overcast
10:35 PM 24.8 °F 12.4 °F 15.8 °F 69% 29.95 in 10.0 mi NW 15.0 mph 21.9 mph N/A Snow Light Snow
10:55 PM 24.8 °F 14.6 °F 15.8 °F 69% 29.95 in 10.0 mi NW 10.4 mph 18.4 mph N/A Snow Light Snow
11:15 PM 24.8 °F 14.0 °F 15.8 °F 69% 29.95 in 10.0 mi WNW 11.5 mph 18.4 mph N/A Snow Light Snow
11:35 PM 24.8 °F 13.4 °F 15.8 °F 69% 29.95 in 10.0 mi NW 12.7 mph 20.7 mph N/A   Overcast
11:55 PM 24.8 °F 15.3 °F 15.8 °F 69% 29.95 in 10.0 mi WNW 9.2 mph 19.6 mph N/A   Mostly Cloudy